Location: *
(60.1759°S, 155.0663°W)
Time: 05:56:13
(UTC+00:00)

Cosmos 1238 Rocket - Pass Details

Date: 17 September 2019
Orbit: 376 x 1032 km, 82.9° (Epoch: 18 October)

Event Time Altitude Azimuth Distance (km) Brightness Sun altitude
Exits shadow 12:16:09 72° 346° (NNW) 1,057 3.9 -27.6°
Maximum altitude 12:16:55 89° 262° (W) 1,004 3.9 -27.5°
Drops below altitude 10° 12:23:04 10° 166° (SSE) 2,613 7.1 -27.1°
Sets 12:25:24 0° 166° (SSE) 3,475 7.9 -26.9°
